Theta_e
310 310 310 310 309 308 298 287 284 295 298 288 286 286 290 296 294 296 295 295 294 294 294 293 294 295 302 306 301 298 298 292 291 296 300 302 299 298 296 293 291 290 292 295
309 310 310 309 308 306 293 285 285 295 293 283 283 288 292 293 293 294 293 294 296 294 292 291 296 298 303 304 301 298 298 291 288 292 295 298 298 297 295 293 293 293 293 295
309 309 309 309 308 307 294 287 283 287 289 287 286 286 290 292 297 295 295 293 294 292 291 291 292 295 300 302 304 317 308 291 292 291 292 297 297 298 298 296 292 291 294 297
308 308 308 308 308 308 294 287 284 290 284 286 287 286 290 291 291 296 293 290 292 291 287 289 290 294 296 301 311 306 299 293 292 294 299 299 299 300 299 296 296 296 298 299
308 308 307 308 308 304 291 284 285 289 286 287 288 287 287 291 294 292 291 290 293 292 289 291 290 293 296 293 298 299 297 294 293 294 297 299 299 301 300 299 298 298 298 299
307 307 307 308 307 300 289 292 298 294 288 286 286 286 290 292 293 296 297 295 293 292 293 295 295 293 293 294 291 292 294 294 292 292 296 297 294 300 299 300 300 300 297 303
307 307 307 308 307 303 296 295 296 291 283 286 290 291 292 292 293 291 297 298 293 297 301 298 295 293 292 293 293 295 292 293 293 292 292 288 299 303 305 303 304 303 305 305
306 306 307 307 308 307 299 302 298 293 286 288 289 292 290 291 293 293 296 301 298 299 296 292 290 290 291 294 295 292 295 293 291 291 290 295 299 303 302 301 302 305 306 309
306 306 307 308 308 307 299 302 302 296 290 286 292 291 292 288 287 290 295 300 297 296 293 291 286 287 289 290 294 294 294 295 295 290 290 290 302 305 308 306 300 309 312 313
307 307 307 307 308 307 303 301 296 295 292 292 290 289 291 292 289 287 290 293 294 296 289 287 287 288 292 291 293 293 293 292 294 291 291 295 302 307 308 298 302 311 315 318
306 307 307 307 307 307 304 302 298 297 292 290 294 295 293 292 289 286 290 291 293 295 288 290 289 289 292 291 295 295 294 293 293 292 291 292 305 306 305 307 305 313 317 321
306 307 307 307 307 307 305 297 301 302 296 291 295 297 300 298 296 291 290 289 290 293 291 293 294 295 291 291 291 297 295 298 297 298 298 303 304 306 307 306 310 314 318 322
307 307 307 307 307 307 305 298 301 296 293 290 289 292 299 302 300 301 289 291 294 292 294 291 293 294 293 290 291 297 300 302 300 301 304 306 313 315 315 315 314 316 322 325
307 308 308 308 308 307 305 298 297 293 291 288 287 297 295 303 300 300 299 296 295 292 293 290 289 294 299 295 294 295 302 306 304 302 309 311 315 318 318 321 322 324 327 327
307 307 307 307 307 307 303 300 302 299 291 287 287 294 297 301 300 301 300 297 293 291 290 293 295 299 300 300 297 295 300 304 304 302 310 307 310 319 323 322 323 325 325 325
308 308 308 308 308 307 297 294 296 302 300 293 287 293 295 301 299 300 300 300 298 297 294 297 300 303 301 298 297 304 310 311 310 308 311 316 319 323 325 322 324 325 325 325
308 308 308 308 308 303 295 293 301 303 301 294 290 288 295 301 296 298 301 303 303 303 301 299 302 303 304 299 298 307 310 312 314 316 320 318 321 320 323 323 322 321 322 322
308 307 307 307 307 305 300 302 306 304 298 296 290 289 292 296 294 295 304 303 306 306 306 305 301 303 304 301 305 308 311 314 316 317 319 319 321 322 320 321 320 318 317 318
307 307 307 302 301 297 298 309 308 301 298 293 294 291 287 299 300 300 302 305 298 307 304 305 305 302 300 305 309 310 310 310 314 319 320 320 319 319 319 318 318 316 316 316
305 302 298 293 300 308 308 301 297 295 295 292 289 295 290 297 299 297 299 301 298 295 301 307 301 301 306 308 309 309 311 313 318 315 313 316 316 317 318 317 318 317 316 315
297 294 293 300 305 301 299 296 294 295 293 296 294 293 296 302 296 292 299 295 298 294 298 301 299 296 304 310 310 313 314 316 316 317 318 319 318 317 316 316 316 315 314 312
300 300 302 299 300 299 295 295 297 295 294 299 294 293 300 299 298 293 296 297 298 295 301 299 296 299 310 310 314 314 316 317 316 317 316 316 315 315 314 313 313 313 313 312
300 299 300 297 296 288 289 289 292 293 298 301 301 299 300 300 297 294 293 293 294 299 296 296 297 306 311 313 313 314 317 317 316 316 317 318 317 318 316 314 314 313 312 312
294 293 287 293 292 294 295 295 296 300 302 301 302 294 298 297 294 294 292 293 296 292 290 293 298 310 311 314 312 312 312 314 315 315 315 315 315 316 317 316 316 313 311 311
293 292 287 293 297 297 299 300 300 303 305 302 299 295 297 297 297 295 293 292 290 292 293 299 306 310 312 313 313 311 311 311 311 312 312 312 311 310 309 311 313 312 310 309
295 293 291 294 293 295 298 299 299 304 303 304 303 299 297 296 297 297 295 292 291 297 302 305 307 310 311 313 314 314 313 314 313 315 314 314 313 311 309 310 309 309 308 306
293 293 296 295 294 296 298 300 301 304 302 298 300 295 295 299 296 295 298 296 294 300 306 308 309 309 311 311 312 314 314 312 312 315 315 315 314 311 310 308 308 308 308 306
Wind_Speed
10 10 10 7 8 12 7 2 3 4 3 2 0 4 7 3 4 2 3 1 2 3 1 5 7 9 11 12 10 12 7 5 4 7 1 1 4 8 7 8 5 1 4 8
8 9 7 4 6 6 1 2 4 5 3 3 2 5 5 3 4 4 5 5 2 2 3 4 4 6 2 8 10 13 9 2 3 10 6 2 4 5 6 7 5 7 8 7
5 6 2 4 5 3 3 2 4 5 4 1 2 5 5 9 4 3 1 3 0 3 1 2 2 2 2 2 9 10 13 5 10 10 6 6 5 5 5 7 5 6 7 5
2 4 3 3 5 4 4 2 3 0 4 3 4 1 5 6 6 9 6 3 6 6 4 2 3 2 3 3 5 7 8 8 7 7 8 6 5 6 9 7 6 8 10 11
2 3 3 4 5 4 4 2 1 3 4 4 5 1 1 4 11 5 9 6 5 8 7 8 5 4 2 3 7 5 3 4 6 6 8 9 8 9 9 5 4 2 6 7
2 3 3 4 4 6 2 2 2 0 4 4 3 1 4 6 9 7 11 8 4 6 8 7 8 3 2 6 2 3 0 7 5 8 3 8 7 17 6 6 5 8 7 13
4 4 5 6 2 4 3 2 1 1 5 2 3 5 5 9 11 6 7 5 7 2 6 2 2 1 5 5 6 8 4 3 4 6 3 6 8 6 14 12 9 9 3 8
4 6 7 7 3 3 1 1 1 2 4 3 9 7 4 9 9 4 5 4 2 3 1 4 2 4 3 6 8 9 8 6 2 7 6 6 5 5 9 9 10 10 9 7
5 7 9 9 4 3 2 2 2 1 3 5 4 4 4 4 5 6 5 5 5 1 4 3 6 7 8 5 4 6 8 5 5 3 8 12 14 6 6 3 10 9 8 14
8 7 9 10 8 6 2 2 3 1 3 7 3 4 3 2 2 4 5 8 7 4 3 4 4 6 6 7 10 7 5 3 9 3 4 9 9 9 8 8 13 9 11 15
9 10 9 9 9 6 1 3 4 3 3 6 7 7 10 3 1 2 5 6 3 3 2 5 6 4 7 2 7 10 9 9 6 3 3 7 7 6 19 10 0 7 9 14
9 9 10 10 8 7 3 3 2 1 4 7 3 9 14 13 13 4 2 4 3 3 2 2 1 2 1 5 5 2 3 9 10 10 10 5 4 1 4 5 8 8 10 8
12 11 11 11 8 6 3 4 3 1 3 6 3 11 17 15 19 11 3 4 4 4 2 0 3 5 4 5 7 4 3 3 5 5 5 7 4 2 1 2 3 7 7 18
12 13 13 12 11 8 5 4 2 2 2 5 8 2 4 7 11 17 19 12 6 2 1 3 3 4 3 3 3 3 5 7 6 4 2 1 3 5 4 4 9 15 14 18
14 15 14 14 12 9 6 5 6 6 4 4 7 10 6 9 11 15 16 14 6 3 4 1 5 4 1 1 1 4 4 7 7 7 9 6 6 5 7 8 11 19 25 19
18 17 16 14 11 6 2 3 1 5 5 3 5 5 5 3 9 11 13 8 4 3 3 4 5 5 2 1 4 2 4 6 4 3 3 3 5 5 5 7 11 13 19 21
19 19 17 14 10 3 3 4 0 7 3 3 4 5 5 2 6 4 4 4 4 4 3 3 3 3 1 2 3 6 11 9 7 5 7 7 4 5 8 14 12 15 17 17
21 20 17 9 8 5 5 6 14 6 2 1 3 6 5 2 1 5 3 3 3 3 4 3 3 4 0 4 2 7 7 9 5 1 1 6 11 14 13 17 20 21 18 18
20 11 6 4 1 2 3 6 5 4 2 3 3 1 4 5 2 1 4 2 1 2 3 4 1 3 2 3 8 10 6 6 6 6 11 15 16 13 15 19 18 20 19 19
12 2 1 2 3 7 9 2 2 3 3 2 3 2 4 2 2 2 2 3 6 3 5 3 1 4 3 4 5 7 7 7 3 8 7 13 15 15 13 12 14 15 15 19
4 4 2 3 9 1 3 3 4 3 4 3 3 3 3 2 3 2 3 2 3 5 4 2 3 4 4 6 8 7 3 5 5 8 9 8 13 13 15 15 14 16 17 17
1 2 3 3 3 3 4 2 1 3 2 2 2 4 3 1 3 3 2 3 2 1 3 1 2 5 3 5 6 6 4 12 12 14 17 15 15 15 16 15 16 15 17 16
1 2 1 3 1 1 2 4 3 0 4 1 1 1 1 1 2 1 3 5 1 2 1 3 4 4 1 2 4 7 8 15 17 16 17 17 15 13 14 15 13 15 13 12
3 3 6 5 5 4 3 7 7 2 3 4 1 1 3 2 2 2 4 4 2 3 2 3 4 2 3 3 4 8 11 15 17 17 16 16 14 12 11 10 10 12 11 10
4 4 6 4 5 6 8 6 5 3 3 2 0 1 1 1 2 1 1 2 1 3 4 3 1 3 2 4 6 8 10 12 14 15 17 18 16 13 13 10 7 6 7 9
4 6 4 7 4 8 8 10 6 3 5 1 1 2 3 3 2 1 4 2 3 4 3 4 2 1 5 4 3 4 7 11 13 13 16 17 18 13 9 8 9 8 5 6
5 4 2 3 6 7 7 8 8 7 3 3 2 4 5 1 3 3 3 3 6 8 3 2 3 4 3 4 5 5 2 6 5 10 10 11 12 16 13 10 7 8 6 6
Wind_Direction
294 302 307 316 330 333 43 57 324 321 16 94 294 181 185 247 293 170 287 262 210 206 119 136 173 179 214 193 146 178 189 140 210 206 162 353 145 167 136 129 221 102 140 267
294 309 304 333 339 31 84 358 263 310 89 193 268 263 255 237 251 193 195 229 214 350 181 119 154 188 229 174 157 160 177 226 23 337 356 37 173 179 118 114 88 189 138 254
300 311 336 352 340 40 91 63 343 317 23 333 6 343 234 215 222 261 48 225 135 103 19 8 123 148 260 34 199 166 146 146 174 204 190 163 173 175 164 129 123 174 211 190
347 329 356 342 345 39 92 44 265 285 323 327 331 199 303 205 238 206 172 241 200 152 166 152 201 246 321 32 340 131 137 191 177 218 199 175 215 178 162 161 186 160 222 186
301 309 326 338 3 76 75 118 93 337 262 295 296 125 288 283 231 201 220 198 196 183 196 181 174 146 63 283 1 92 24 217 168 244 221 189 221 237 184 161 134 290 123 238
301 312 318 334 22 80 74 285 267 266 292 321 313 7 340 306 339 267 235 206 206 222 229 228 231 236 236 248 45 359 61 139 110 235 155 113 271 231 184 183 174 155 169 221
36 11 345 337 301 143 147 226 297 295 276 255 297 322 306 311 311 274 315 200 169 188 316 188 107 247 262 270 228 178 152 104 135 197 71 204 252 205 188 190 203 192 135 181
4 352 340 328 308 173 187 227 233 276 275 259 295 283 306 313 299 270 239 318 61 305 316 77 60 339 321 245 219 182 173 124 158 145 188 291 273 186 170 160 247 187 182 154
342 344 342 346 330 315 151 237 181 247 296 246 290 327 315 309 322 317 278 327 307 135 122 131 164 194 196 201 174 56 114 96 130 158 155 207 227 230 198 108 226 181 163 159
328 339 347 348 342 16 142 263 189 226 256 265 217 242 290 293 330 280 299 340 347 20 126 137 167 228 199 172 173 161 119 86 190 169 213 280 237 185 105 150 227 174 171 169
321 328 329 333 341 343 128 259 202 198 251 273 222 244 253 274 95 291 306 326 337 7 178 153 207 171 221 153 181 170 155 144 183 130 142 265 156 50 182 188 331 170 164 175
310 307 306 312 315 333 51 283 197 234 244 250 253 238 243 241 238 185 275 258 276 224 42 354 322 213 147 167 208 66 185 178 176 171 205 239 251 305 314 162 150 172 149 145
304 304 299 297 296 302 282 273 279 330 277 282 269 241 247 233 228 195 192 262 227 45 144 282 266 252 138 171 241 142 236 163 148 109 231 223 229 324 301 215 218 150 136 142
309 303 300 297 293 288 262 244 181 134 250 277 280 267 218 237 204 203 213 245 334 42 76 204 239 249 199 226 247 195 194 135 170 263 350 262 248 193 172 135 124 109 122 139
306 300 295 292 289 285 269 231 227 199 175 271 286 297 259 233 201 203 209 223 244 1 313 207 237 240 175 250 30 265 208 175 157 216 208 163 214 156 134 148 148 143 131 133
297 293 290 285 278 292 331 300 200 186 182 259 290 288 294 346 182 178 188 193 190 230 208 238 268 258 121 220 224 271 332 295 254 259 149 89 86 95 107 120 139 138 135 139
296 292 287 272 254 189 204 193 61 157 181 253 285 291 269 232 124 190 131 151 207 197 245 247 246 288 125 182 233 323 322 300 265 186 125 65 175 157 121 114 107 107 107 119
306 307 292 253 210 201 254 248 228 217 256 243 268 260 326 325 136 108 136 188 201 221 258 281 255 308 70 251 291 324 305 319 21 262 265 121 111 112 118 121 124 120 122 129
316 323 111 94 121 194 245 41 133 132 189 274 262 280 275 348 51 330 97 137 203 244 237 253 156 287 238 268 319 318 311 303 297 94 104 111 115 122 131 133 132 127 134 131
315 153 50 302 211 322 143 248 109 166 212 215 248 249 277 80 357 26 95 191 195 175 240 266 123 270 269 262 281 278 296 298 93 93 110 123 126 131 129 129 128 129 130 122
23 14 294 316 314 166 179 228 198 166 222 198 244 221 300 332 40 24 31 257 197 189 234 150 297 279 274 314 331 315 280 81 32 102 92 103 123 127 124 122 121 126 121 118
236 288 298 297 345 335 318 313 244 220 10 186 252 245 221 319 110 127 198 241 42 208 351 329 219 256 291 336 7 348 76 90 80 85 90 89 91 101 105 107 109 111 114 121
80 216 95 15 115 321 297 303 262 263 293 231 167 150 134 8 73 21 15 31 210 326 179 248 248 278 264 61 51 66 87 99 95 91 94 99 95 98 110 116 113 114 119 128
60 10 9 352 356 337 316 302 299 258 269 308 331 207 193 183 180 177 150 198 230 187 167 231 308 283 355 70 27 99 92 94 94 92 87 81 82 89 95 103 120 131 135 137
48 43 10 340 310 272 283 288 284 266 262 304 92 43 165 145 177 78 55 10 296 200 220 202 16 314 51 108 98 94 100 97 95 98 92 83 76 67 59 53 60 84 109 120
47 42 356 305 307 325 332 327 302 323 340 60 34 46 31 46 325 56 16 82 284 301 312 348 338 240 73 79 103 92 103 122 118 112 111 110 105 100 97 67 62 45 58 98
25 350 297 281 267 279 316 320 326 326 353 33 13 32 14 342 35 65 357 32 245 269 273 328 84 125 119 79 84 100 105 75 93 118 112 111 117 121 122 134 161 164 160 126